Regional Weather Roundup
Issued by NWS

Home | Current Version | Previous Version | Text Only | Print | Product List | Glossary On
Versions: 1 2 3 4 5 6 7 8 9 10 11 12 13 14 15 16 17 18 19 20 21 22 23 24 25 26 27 28 29 30 31 32 33 34 35 36 37 38 39 40 41 42 43 44 45 46 47 48 49
000
ASUS43 KDMX 301107
RWRIA

WEATHER ROUNDUP FOR IOWA
NATIONAL WEATHER SERVICE DES MOINES IA
600 AM CDT SUN AUG 30 2015

NOTE: "FAIR" INDICATES FEW OR NO CLOUDS BELOW 12,000 FEET WITH NO
SIGNIFICANT WEATHER AND/OR OBSTRUCTIONS TO VISIBILITY.

* - THESE STATIONS ARE NOT NWS STATIONS...THUS NOT UNDER NWS
QUALITY CONTROL.  THEY ALSO DO NOT REPORT WEATHER SUCH
AS PRECIPITATION OR FOG.

IAZ001>003-012>014-020>022-031>034-043>046-301200-
   NORTHWEST IOWA

CITY           SKY/WX    TMP DP  RH WIND       PRES   REMARKS
CARROLL *      CLOUDY    63  63 100 CALM      30.03F
CHEROKEE *     CLOUDY    63  63 100 S7        30.02F
DENISON *      CLOUDY    63  61  94 CALM      30.01S
LE MARS *      CLOUDY    63  61  94 S12       30.02S
ORANGE CITY *  CLOUDY    63  61  94 S10       30.02R FOG
SHELDON *      CLOUDY    63  61  94 S10       30.01R FOG
SPENCER        CLOUDY    63  60  90 S8        30.03S
STORM LAKE *   CLOUDY    63  61  94 SW7       30.04F
$$

IAZ055>058-069>071-079>083-090>094-301200-
   SOUTHWEST IOWA

CITY           SKY/WX    TMP DP  RH WIND       PRES   REMARKS
ATLANTIC *     FOG       63  63 100 CALM      30.03F VSB 0
AUDUBON *      CLOUDY    63  61  94 CALM      30.04F FOG
CLARINDA *     FOG       61  61 100 N5        30.05S VSB 0
COUNCIL BLFS * FOG       61  61 100 SW7       30.03F VSB 1/4
CRESTON *      FOG       63  63 100 CALM      30.05S VSB 0
HARLAN  *      CLOUDY    64 N/A N/A S5        30.06F FOG
LAMONI         FOG       64  63  96 E3        30.04S VSB 1/4
RED OAK *      FOG       63  63 100 CALM      30.03F VSB 0
SHENANDOAH *   FOG       57  57 100 CALM      30.04S VSB 1/4
$$

IAZ047>049-059>061-072>074-084-301200-
   CENTRAL IOWA

CITY           SKY/WX    TMP DP  RH WIND       PRES   REMARKS
AMES           CLOUDY    60  60 100 CALM      30.04S
ANKENY *       FOG       55  55 100 CALM      30.04S VSB 1/2
CHARITON *     FOG       63  63 100 CALM      30.04S VSB 0
DES MOINES     FOG       61  59  93 CALM      30.03S VSB 1
GRINNELL*      FOG       63  63 100 CALM      30.05R VSB 1/4
KNOXVILLE *    FOG       61  59  94 CALM      30.03S VSB 0
MARSHALLTOWN   CLOUDY    61  60  97 CALM      30.04S
PELLA *        FOG       63  63 100 CALM      30.05S VSB 1/4
PERRY *        CLOUDY    63  63 100 CALM      30.04S FOG
$$

IAZ004>006-015-016-023>025-035-036-301200-
   NORTH CENTRAL IOWA

CITY           SKY/WX    TMP DP  RH WIND       PRES   REMARKS
ALGONA *       CLOUDY    61  61 100 SW6       30.04S FOG
CLARION *      CLOUDY    61  59  94 SW5       30.05R
ESTHERVILLE    CLOUDY    60  59  96 S12       30.03S
FORT DODGE *   CLOUDY    63  59  88 CALM      30.05S
MASON CITY     FOG       55  55 100 S5        30.06S VSB 1/4
FOREST CITY *  FOG       52  52 100 CALM      30.04S VSB 1/4
IOWA FALLS *   FOG       61  59  94 CALM      30.06S VSB<1/4
$$

IAZ007>011-017>019-026>030-037>042-050>054-066-301200-
   NORTHEAST IOWA

CITY           SKY/WX    TMP DP  RH WIND       PRES   REMARKS
CEDAR RAPIDS   FOG       62  62 100 E6        30.04S VSB 1/2
CHARLES CITY * FOG       55  55 100 S5        30.05F VSB 1/4
CLINTON *      CLOUDY    57  57 100 CALM      30.06F VSB<1/4
DECORAH *      CLOUDY    55  55 100 CALM      30.05S FOG
DUBUQUE        CLEAR     58  56  93 E3        30.06S
MONTICELLO *   FOG       57  57 100 CALM      30.05S VSB 1/4
OELWEIN *      CLOUDY    57  57 100 E5        30.06S FOG
WATERLOO       CLOUDY    58  57  97 CALM      30.04S
$$

IAZ064-065-067-068-078-301200-
   EAST CENTRAL IOWA

CITY           SKY/WX    TMP DP  RH WIND       PRES   REMARKS
DAVENPORT      FOG       59  58  96 CALM      30.05S VSB 1/4
IOWA CITY      FOG       64  63  96 SE5       30.05S VSB 1/2
MT. PLEASANT * CLOUDY    68  64  88 CALM      30.04S FOG
MUSCATINE *    FOG       63  63 100 CALM      30.05S VSB 0
QUAD CITIES    FOG       62  60  93 CALM      30.05R VSB 1/4
$$

IAZ062-063-075>077-085>089-095>099-301200-
   SOUTHEAST IOWA

CITY           SKY/WX    TMP DP  RH WIND       PRES   REMARKS
BURLINGTON     PTCLDY    66  66 100 N5        30.03S FOG
FAIRFIELD *    FOG       64  64 100 E7        30.04S VSB 1/4
FORT MADISON * FOG       66  66 100 CALM      30.04S VSB 1/2
KEOKUK *       FOG       68  68 100 NE6       30.02S VSB 1/4
OSKALOOSA *    LGT RAIN  63  63 100 CALM      30.05R VSB 1/4
CENTERVILLE *  FOG       64  64 100 CALM      30.05S VSB 1/4
OTTUMWA        FOG       65  65 100 SE5       30.02S VSB 1/4
WASHINGTON *     N/A    N/A N/A N/A MISG        N/A
$$

ABBREVIATIONS USED IN REMARKS
   TC - TEMPERATURES IN CELSIUS
  WCI - WIND CHILL INDEX
   HX - HEAT INDEX
  VSB - VISIBILITY
$$




USA.gov is the U.S. government's official web portal to all federal, state and local government web resources and services.